Location: Allens Landing
(37.8284°N, 89.7284°W)
Time: 13:32:21
(UTC+00:00)

Vanguard 2 - Pass Details

Date: 14 December 2025
Orbit: 552 x 2898 km, 32.9° (Epoch: 13 January)

Event Time Altitude Azimuth Distance (km) Brightness Sun altitude
Exits shadow 11:51:04 17° 248° (WSW) 1,438 8.5 -14.5°
Maximum altitude 11:53:42 37° 188° (S) 921 8.0 -14.0°
Drops below altitude 10° 11:58:07 10° 120° (ESE) 2,195 11.3 -13.2°
Sets 12:01:05 0° 113° (ESE) 3,380 12.9 -12.6°
